RH
33 33 33 32 32 30 29 27 24 22 20 18 15 13 12 11 9 8 7 6 6 6 6 7 7 8 8 8 8 8 9 8 8 8 8 9 9 9 9 9 9 9 10 10 15 32 52 61 59 67 85 85 82 85 84 85 82 77 78 80 77 71 61 50 44 37 30 35 44 48 47 48 53 58 62 63 63 67 70 70 73 77 73 73 70 73 95 102
35 35 35 35 34 33 32 31 30 29 26 24 21 19 16 14 13 11 10 8 7 6 6 6 6 7 7 7 8 8 8 8 8 8 9 9 9 9 8 9 9 10 10 10 12 22 51 72 70 74 84 83 79 81 80 81 82 74 71 74 70 62 56 49 43 39 36 38 43 48 48 49 51 57 62 57 61 67 66 69 74 80 80 77 77 78 91 102
38 37 38 37 37 36 35 34 33 32 31 30 27 25 22 19 17 14 13 11 9 8 7 6 6 6 6 7 7 8 8 8 8 8 9 8 10 10 9 10 8 10 9 9 9 11 35 58 64 76 83 78 76 78 76 76 79 73 70 73 65 57 55 49 45 43 39 38 42 48 50 51 53 59 60 53 60 63 59 66 70 78 86 87 91 89 94 102
41 40 40 40 40 39 37 36 35 34 33 32 31 29 27 23 21 18 16 14 12 10 8 8 7 6 6 6 6 7 7 9 8 8 9 11 13 11 11 12 9 9 9 9 9 11 26 44 61 78 77 71 76 76 71 73 75 72 73 69 56 52 53 48 47 42 37 38 41 48 51 51 56 60 57 54 59 60 55 62 65 71 82 90 97 94 96 99
43 42 42 41 41 40 39 37 35 35 33 33 32 31 30 27 25 21 19 16 14 12 10 10 8 8 7 6 6 6 8 10 9 9 12 14 12 10 10 12 12 9 9 10 14 20 33 53 73 80 70 65 74 75 69 70 72 70 71 67 56 53 51 48 49 42 37 42 45 48 49 50 58 59 57 55 51 52 55 60 65 70 69 71 84 89 93 98
45 44 43 42 42 41 39 37 35 33 32 31 30 30 30 29 28 25 22 18 16 14 12 11 9 9 8 6 6 5 8 9 9 12 15 13 9 10 9 10 13 11 9 10 21 38 52 71 80 73 65 64 69 70 68 70 72 69 65 64 63 60 57 54 52 45 40 44 45 46 48 52 57 54 57 55 45 47 53 57 65 73 68 60 69 78 82 91
46 44 43 42 41 40 39 36 33 31 30 29 28 28 28 28 28 27 25 21 18 15 13 12 10 10 8 8 6 7 10 9 10 13 13 10 8 11 8 9 14 12 10 13 30 54 67 78 77 67 64 64 66 67 66 70 72 70 63 59 60 59 57 55 52 47 42 41 41 46 49 51 52 50 57 57 49 49 49 54 62 71 78 70 66 69 71 79
45 43 42 41 40 39 38 35 32 30 28 28 27 26 26 27 28 27 26 23 20 17 14 13 11 10 9 8 6 7 11 10 9 10 10 9 9 10 8 12 16 11 10 14 25 44 62 75 73 67 65 62 66 67 66 67 66 67 64 59 57 54 51 48 46 44 42 38 38 45 47 47 49 50 54 55 53 54 50 55 61 65 80 80 69 68 70 75
45 43 42 42 41 40 38 36 34 31 29 28 27 26 26 27 28 27 26 24 21 17 14 13 12 11 10 8 8 8 8 9 9 9 9 9 10 10 9 13 16 12 13 16 20 33 56 73 69 64 63 61 63 63 65 65 59 58 60 59 56 50 46 43 41 40 39 37 36 42 43 43 49 51 49 51 55 56 54 57 63 66 77 86 81 73 68 69
42 41 41 40 40 39 37 36 35 33 32 30 28 27 26 27 28 27 25 22 20 17 14 13 12 11 10 8 11 11 8 10 11 11 11 10 10 11 9 11 14 14 16 20 26 34 43 53 63 65 62 63 62 58 61 61 53 49 51 51 48 45 42 39 38 36 36 35 35 37 37 40 50 52 44 47 56 57 57 62 68 70 76 86 89 84 73 66
36 36 36 36 36 36 35 35 34 33 33 31 30 28 27 27 28 26 24 20 17 14 12 12 11 11 10 9 12 11 7 10 12 11 11 12 12 10 10 10 12 13 14 18 25 29 24 29 55 65 53 55 57 53 55 54 50 46 43 41 36 34 31 29 29 30 30 30 33 33 33 41 50 51 43 47 57 57 60 67 73 75 79 86 88 89 85 76
28 28 28 29 30 30 30 31 31 32 31 31 31 29 28 27 26 24 20 16 13 12 11 10 10 10 10 11 11 8 6 9 11 12 12 12 13 11 9 9 9 10 10 15 19 21 20 22 45 58 44 42 45 40 41 45 45 41 36 34 29 25 24 23 20 21 24 24 29 33 36 43 49 47 45 49 56 59 62 69 76 78 82 87 88 90 89 83
21 20 20 20 20 21 21 22 24 28 29 30 30 29 29 26 23 19 16 15 14 15 16 13 10 9 11 13 10 7 7 8 11 15 16 14 15 15 11 9 9 10 9 13 15 17 21 21 33 48 40 34 36 31 30 33 34 32 28 28 26 25 23 20 18 19 21 22 28 34 32 37 41 43 45 49 54 61 65 69 75 79 81 86 89 89 89 87
17 16 16 15 15 14 14 15 17 21 25 27 28 29 28 23 19 18 19 20 19 21 22 19 14 9 11 12 9 8 7 7 9 12 14 14 16 16 15 13 9 12 16 17 17 20 24 24 32 44 38 31 32 29 28 27 26 27 27 27 26 28 26 16 16 21 21 22 29 31 25 26 32 39 46 50 54 59 62 67 72 76 79 83 85 87 89 89
15 15 14 13 13 12 11 12 12 14 20 25 27 27 25 21 20 25 28 28 28 26 25 26 19 13 17 13 7 10 10 7 7 7 11 13 13 12 14 16 13 14 22 23 22 24 30 35 41 42 35 31 31 26 25 23 22 24 29 31 26 25 25 17 15 18 17 21 29 30 24 24 25 33 48 53 54 57 59 65 70 74 77 79 82 85 88 88
13 13 12 12 11 10 10 11 11 10 16 24 27 25 22 20 25 33 35 35 34 29 27 28 20 15 22 17 8 13 15 10 8 6 7 10 11 10 10 16 18 17 23 25 22 25 33 39 41 38 30 27 27 24 23 20 18 21 29 34 29 26 26 21 16 14 15 20 28 28 23 23 21 30 49 56 55 55 57 64 69 73 75 77 81 82 85 88
14 13 12 12 10 10 9 9 10 9 15 26 26 23 22 23 30 35 40 43 41 38 32 25 24 24 20 14 12 14 14 12 10 9 8 7 9 9 9 16 23 21 24 27 24 25 32 35 32 30 27 22 20 21 21 19 17 19 26 31 30 27 26 23 18 14 15 17 24 27 24 22 22 33 50 56 55 55 55 62 67 71 74 76 79 80 83 87
14 13 13 12 11 11 8 10 9 8 19 27 24 24 25 27 29 35 46 52 49 48 43 35 41 39 21 15 17 16 16 17 15 14 12 9 7 8 9 14 23 28 30 31 28 27 29 29 25 23 23 21 19 18 17 16 15 16 24 30 29 27 24 23 20 14 13 14 16 22 24 22 23 36 51 55 55 54 53 59 65 69 73 76 78 78 81 85
14 14 14 12 13 11 9 11 8 13 25 26 24 25 26 29 33 43 57 56 48 43 40 43 46 34 20 19 19 17 20 22 21 19 18 14 9 9 10 12 24 33 32 29 28 27 27 27 27 25 22 21 19 17 15 15 15 15 20 27 30 31 27 23 19 13 12 13 13 15 19 18 18 32 47 54 56 54 54 59 64 68 71 75 77 77 80 83
14 14 13 12 13 10 11 10 7 19 26 22 25 24 25 33 32 38 49 41 33 32 30 37 38 28 25 25 22 20 20 20 21 20 21 19 13 12 15 20 29 32 27 24 26 27 25 25 27 26 22 20 19 17 14 15 18 20 22 26 28 29 27 21 16 14 11 13 15 13 15 15 15 24 38 50 57 55 55 59 63 66 70 74 75 75 78 80
14 14 13 13 12 10 12 9 10 24 22 18 27 25 32 42 34 39 46 31 22 25 25 26 29 30 29 26 25 24 22 20 19 19 23 24 18 15 17 22 28 28 24 22 25 27 25 24 24 23 22 21 20 17 15 15 18 21 23 24 25 24 23 20 17 16 13 15 18 15 15 15 13 17 32 48 55 54 54 57 60 63 67 72 74 74 76 80
14 15 13 14 12 9 11 9 12 22 17 18 29 29 37 46 42 49 56 44 30 24 23 22 24 26 25 24 25 24 26 25 20 19 24 27 22 15 15 19 21 23 24 23 26 30 29 26 22 21 22 22 21 19 17 15 15 17 18 20 23 23 23 22 18 15 12 15 17 15 14 14 13 18 31 45 52 52 53 54 57 62 65 69 72 73 75 79
14 14 13 15 13 10 10 9 12 16 12 18 31 35 40 45 43 48 56 54 39 25 21 21 23 22 21 22 22 23 28 27 22 18 21 26 23 16 15 15 16 20 24 24 24 30 31 26 22 21 21 22 23 22 19 17 16 15 14 16 18 18 22 24 18 13 11 12 13 14 14 13 18 28 37 44 49 51 54 55 56 60 64 66 68 71 74 77
14 13 14 14 13 10 8 10 12 12 14 24 35 37 41 46 42 45 57 54 39 29 24 21 23 23 20 21 20 22 26 25 23 17 16 23 23 19 15 13 14 17 22 23 22 25 26 21 21 23 22 22 23 22 22 21 18 16 14 14 14 14 19 21 18 14 13 13 12 14 18 16 20 29 37 43 48 51 54 56 58 61 63 66 67 69 73 75
14 13 14 14 14 10 7 11 11 15 27 36 39 37 38 42 40 47 59 50 35 31 25 22 26 24 21 21 21 23 25 24 22 16 15 20 23 21 16 12 14 15 18 22 23 24 22 20 21 24 23 23 23 23 22 20 19 18 17 14 13 15 17 18 16 16 20 22 16 16 22 24 25 30 36 45 51 52 53 54 55 59 62 64 67 68 71 73
17 15 14 14 16 10 8 14 13 18 34 37 35 34 36 37 38 50 55 41 30 25 21 23 23 20 20 23 23 23 24 22 19 17 16 17 20 21 16 14 14 13 15 19 21 22 21 20 20 23 24 23 24 24 21 19 19 18 18 16 16 17 18 19 18 21 27 27 19 16 22 26 25 25 31 43 52 52 52 53 53 56 59 61 63 65 68 71
20 19 17 15 16 15 14 19 20 23 36 38 29 30 36 34 36 47 44 35 31 22 18 22 20 17 18 20 23 22 20 20 18 19 18 15 20 21 17 16 14 13 15 18 20 20 20 20 20 21 23 23 24 23 20 19 19 19 18 17 17 18 19 20 21 24 26 24 20 17 19 24 24 22 27 38 48 53 54 54 52 53 56 59 60 61 65 68
21 22 22 17 15 19 19 23 28 30 38 40 29 30 35 31 35 44 37 29 27 18 15 19 16 16 18 19 23 19 16 16 16 19 18 16 19 20 18 16 13 14 15 16 19 18 18 20 21 21 22 23 22 20 19 19 19 18 17 16 17 18 19 19 21 24 22 22 24 19 16 23 24 23 32 38 41 48 53 53 52 52 54 56 57 59 62 66
21 22 26 21 15 19 21 27 36 34 36 36 29 31 33 29 34 39 34 27 21 15 15 16 14 15 19 23 23 21 18 14 12 18 20 19 20 19 19 17 13 14 15 13 14 17 18 18 18 19 20 21 20 18 17 18 19 17 15 16 16 16 17 18 20 21 20 22 26 22 16 23 24 18 28 41 41 40 43 47 49 49 52 55 55 57 59 63
21 21 28 31 26 23 22 28 36 33 34 34 28 30 33 35 36 37 39 30 18 18 17 15 17 17 19 23 21 20 21 16 13 18 21 21 21 19 17 17 14 14 16 14 13 15 16 17 17 17 18 17 17 17 16 17 17 15 14 15 15 17 17 17 18 18 23 28 25 20 15 19 25 18 20 34 37 33 33 39 45 47 50 53 55 55 57 60
23 21 30 43 43 36 30 29 32 33 34 32 29 31 35 36 33 38 43 27 14 20 21 18 22 21 20 22 18 16 17 16 14 18 21 20 21 19 17 18 17 15 18 17 15 15 15 18 18 16 16 16 15 16 16 15 15 14 15 15 17 21 20 20 22 21 27 31 22 17 15 16 22 21 16 21 26 28 27 28 35 42 46 50 53 54 55 57
25 22 28 45 49 42 40 38 35 35 33 31 34 37 35 33 33 38 35 20 17 25 26 25 25 24 26 24 18 15 14 13 14 17 19 18 21 20 17 19 19 21 23 20 18 17 15 16 17 16 16 15 15 17 16 16 15 14 16 17 21 25 23 23 25 24 26 25 17 13 14 16 19 18 16 18 22 25 24 23 26 33 41 48 51 52 54 55
26 24 24 39 45 38 37 38 37 37 32 31 39 40 34 37 39 34 25 21 27 31 29 29 27 27 29 24 20 18 14 12 13 16 17 17 20 19 16 17 17 20 23 20 19 20 18 16 16 16 17 15 15 17 19 19 17 16 16 18 22 24 24 23 23 23 21 18 16 13 14 17 16 14 13 14 17 21 23 24 24 27 34 40 45 49 51 54
26 25 21 33 45 39 31 29 30 33 30 30 40 42 40 43 39 31 30 31 33 32 31 30 29 28 25 21 21 20 16 14 14 15 16 16 20 20 18 17 15 16 18 19 19 20 21 21 17 15 16 16 15 15 16 17 16 15 14 15 19 20 21 20 19 19 17 16 17 16 15 15 13 15 17 12 12 17 21 24 23 25 28 30 37 45 48 51
26 23 23 36 45 38 33 30 26 28 29 32 42 47 46 43 34 31 41 42 37 37 35 30 29 28 22 19 22 23 20 18 18 16 14 15 18 19 19 17 16 15 16 19 21 19 21 20 15 14 14 14 15 14 13 15 17 16 13 15 18 17 17 17 18 18 16 16 19 19 17 16 15 19 20 15 14 15 18 23 24 25 27 30 35 41 44 47
26 21 25 38 41 35 36 35 26 26 31 35 45 52 47 37 33 39 47 46 44 46 39 30 27 26 25 24 24 25 22 20 21 16 12 15 20 23 25 22 19 20 19 20 20 19 21 19 14 14 15 13 13 13 13 15 18 17 16 17 17 14 13 16 21 23 19 17 20 20 17 16 15 16 15 14 16 16 17 20 21 23 26 30 34 37 41 43
33 24 24 34 40 38 42 39 28 30 38 40 46 53 49 38 38 45 48 45 45 45 42 36 29 28 32 31 28 27 24 21 23 18 13 17 25 32 34 29 26 28 30 26 20 18 20 19 15 14 16 15 13 13 13 12 14 17 18 17 14 14 15 18 22 25 21 18 20 19 16 14 14 15 16 17 16 15 16 17 17 21 24 26 29 33 35 38
43 29 27 38 42 42 50 49 37 40 49 46 46 51 50 47 46 46 46 42 41 43 44 41 33 30 35 36 31 28 26 25 25 23 19 21 28 34 35 34 30 29 32 32 24 17 16 18 16 13 14 15 13 14 15 13 12 14 15 14 15 18 23 26 26 24 22 20 20 20 18 15 13 13 16 19 18 16 17 18 18 18 21 22 24 27 30 34
46 34 32 38 40 43 58 64 55 58 58 49 51 52 48 50 50 48 46 40 39 44 44 40 35 34 36 36 32 30 31 31 28 26 26 28 32 33 32 34 32 30 33 34 26 18 15 18 18 13 12 14 15 16 18 17 13 12 12 12 14 16 21 26 24 20 21 22 20 20 19 16 14 12 11 14 18 19 18 21 22 19 19 21 21 22 25 29
55 55 46 39 42 48 57 61 62 68 64 55 58 57 50 52 51 48 46 39 38 42 42 41 41 40 38 34 32 34 35 33 30 28 30 33 34 33 32 33 33 34 35 32 28 24 18 18 20 16 12 14 17 16 16 17 15 14 15 15 15 14 16 20 19 16 18 21 21 21 18 13 14 15 11 10 15 19 20 22 24 21 19 20 21 20 20 22
71 73 56 44 50 51 48 48 52 59 59 55 56 54 52 53 50 48 46 40 38 37 38 40 40 40 39 35 35 37 36 33 31 32 35 37 38 35 33 33 34 37 38 36 35 33 28 23 21 17 14 14 16 14 13 13 14 14 14 15 14 14 15 19 22 18 14 18 20 20 18 13 13 18 15 10 12 14 18 22 22 21 20 20 20 17 17 19
84 71 51 50 56 50 45 46 48 52 54 53 54 53 52 53 51 51 48 43 40 36 36 37 35 37 39 37 37 37 37 38 38 39 41 40 40 38 34 33 34 37 42 44 41 39 41 37 25 18 17 14 12 12 11 11 12 12 13 13 12 13 15 18 22 21 16 18 18 17 21 16 15 23 20 14 14 12 15 21 21 20 20 20 20 17 17 20
91 71 48 50 58 53 50 51 51 54 53 53 56 52 47 50 55 57 54 50 45 39 38 38 35 36 37 37 39 38 38 42 42 41 42 42 40 38 35 34 35 38 42 45 42 37 42 43 32 23 21 15 11 11 11 11 12 12 12 13 11 12 13 13 20 24 18 18 18 19 23 17 18 30 27 19 20 16 14 20 21 21 21 20 20 18 17 20
98 84 59 51 56 56 56 59 62 61 57 58 58 49 46 52 57 62 64 58 50 47 46 43 39 38 38 38 40 40 40 44 45 38 37 41 41 37 36 35 35 40 41 41 40 36 39 43 36 29 28 24 18 16 13 12 13 13 13 12 11 13 11 10 22 28 21 17 17 19 21 16 21 36 32 22 23 19 15 18 19 21 22 19 18 17 18 20
91 84 68 58 60 61 60 63 66 64 62 64 61 52 51 56 57 64 68 62 57 56 52 47 43 41 40 39 40 41 38 40 44 41 35 39 39 34 37 37 36 41 41 37 37 38 42 48 43 35 32 31 31 30 25 22 20 18 16 14 12 12 12 12 21 26 23 23 20 17 19 16 18 28 27 21 22 22 20 19 19 21 19 17 16 15 17 19
87 80 70 65 67 66 64 65 67 67 66 69 67 58 57 61 58 61 67 70 72 67 56 50 49 45 44 44 43 43 40 36 39 42 41 42 40 35 36 38 38 41 41 36 36 40 44 48 50 48 44 40 43 45 38 33 31 26 22 21 17 13 11 13 18 23 26 28 23 19 21 19 14 18 22 21 21 22 23 21 20 20 17 14 15 14 14 15
88 79 74 77 76 69 64 63 67 70 68 70 73 68 65 65 60 59 66 73 78 74 61 54 56 58 58 55 51 48 45 40 40 44 45 45 42 36 34 36 38 42 40 33 32 39 43 43 46 50 47 40 40 39 34 33 35 32 28 27 24 19 16 13 16 24 29 25 19 23 30 25 16 15 19 23 24 25 27 25 22 18 15 14 13 12 12 12
84 76 80 89 86 75 71 69 70 72 67 66 72 71 67 65 63 65 68 67 69 72 70 68 70 73 70 62 58 55 50 47 48 49 49 48 46 39 34 34 36 38 36 28 30 39 42 43 43 40 37 34 30 29 30 33 35 32 31 30 27 26 24 19 17 21 24 22 18 28 40 31 17 13 14 19 25 24 21 20 17 15 14 12 11 10 9 8
89 85 85 91 88 79 79 79 77 75 67 66 72 70 67 67 64 66 68 68 70 69 71 78 80 80 78 69 64 63 58 55 57 57 55 54 51 45 41 38 35 35 33 28 32 38 40 43 43 35 33 33 28 28 31 33 33 31 30 28 26 26 26 25 23 18 17 19 15 23 38 32 16 12 10 11 17 16 13 14 13 13 13 11 9 9 8 7
95 94 91 94 89 79 78 79 77 74 66 66 70 66 66 69 66 66 67 70 78 74 69 76 78 76 77 73 70 67 60 59 64 62 59 58 55 49 46 43 38 37 35 32 35 37 36 40 41 35 33 32 28 29 30 30 31 31 29 26 25 26 25 24 24 20 18 21 15 16 30 30 19 17 17 16 17 16 16 18 16 12 11 11 11 9 7 6
94 96 97 100 92 77 75 74 72 73 68 66 70 68 67 70 69 70 67 64 75 80 73 71 73 73 72 71 71 68 60 58 60 57 54 56 55 50 47 45 42 42 42 39 40 40 35 35 37 35 36 34 29 30 30 28 28 28 27 25 23 24 24 23 23 21 19 21 20 19 23 24 20 19 20 21 22 21 21 23 19 12 9 10 9 7 5 6
96 98 97 101 95 80 76 73 68 72 70 67 71 71 71 72 69 71 74 68 69 75 71 68 71 74 73 70 70 67 61 59 58 55 54 54 51 49 47 45 43 45 46 45 44 43 40 38 34 34 39 36 29 29 31 30 30 28 24 26 27 24 22 19 18 18 18 18 20 20 17 17 20 21 19 18 18 19 21 20 16 12 10 10 8 6 6 6
Wind_Speed
18 18 18 18 18 18 18 17 17 17 17 17 17 17 17 18 18 18 18 18 18 18 19 19 19 18 17 17 17 17 18 19 18 21 23 14 9 13 15 15 12 12 17 20 15 17 28 29 28 26 21 18 14 15 16 9 8 9 4 4 5 4 4 2 2 3 4 3 5 13 16 12 10 11 10 8 6 9 13 7 8 10 4 6 11 17 26 26
18 19 19 19 19 19 19 19 19 19 19 19 18 18 18 18 18 18 19 18 19 19 19 19 19 18 17 17 17 17 18 19 20 24 21 12 14 18 16 18 19 18 17 20 21 21 29 31 30 28 22 15 11 13 14 10 10 9 4 5 6 4 3 4 5 6 7 4 5 12 14 10 12 14 13 9 7 11 12 7 9 10 7 9 13 22 27 26
19 20 20 20 20 20 19 20 20 20 20 20 20 20 20 20 19 19 19 19 19 19 20 19 20 19 16 16 16 16 17 19 22 24 18 12 13 13 14 18 21 22 21 19 20 22 25 30 32 28 21 12 11 14 13 11 11 10 7 6 6 6 7 8 9 10 11 8 6 11 10 7 10 15 13 10 9 12 12 11 14 14 15 17 20 26 28 27
20 20 20 21 21 21 21 21 20 21 21 21 21 21 21 21 21 21 20 20 19 19 20 20 20 19 16 16 15 14 15 16 18 16 7 6 6 4 8 15 18 21 21 17 17 20 22 28 32 27 19 11 10 13 13 13 10 9 10 7 3 4 6 6 8 11 11 6 8 11 10 8 11 13 13 12 9 9 14 19 21 22 25 24 26 29 28 29
20 20 20 21 21 22 22 22 22 22 22 22 22 22 22 22 22 22 22 21 20 19 19 19 20 19 16 15 14 12 10 8 6 6 7 7 2 3 6 12 18 19 19 17 18 22 25 30 29 23 16 10 11 11 12 17 12 7 10 10 6 4 5 6 9 10 7 1 8 10 10 9 12 11 14 16 11 7 13 22 22 24 30 29 31 33 30 30
20 20 21 21 21 22 22 22 23 23 24 24 24 24 23 23 23 23 23 22 21 20 19 19 19 19 17 14 14 11 6 5 4 7 8 3 6 7 7 10 18 21 20 19 23 28 29 31 27 20 14 9 13 11 9 18 15 7 9 11 12 11 12 12 11 10 7 1 9 10 10 11 13 11 14 18 16 8 5 15 20 22 29 30 33 38 35 34
20 21 21 22 22 22 22 22 23 23 24 25 25 25 25 25 24 24 23 22 21 21 19 18 18 18 17 14 14 11 12 17 12 8 9 9 10 9 8 10 20 24 24 25 29 33 34 32 25 20 15 8 12 12 7 14 17 12 9 9 11 13 16 17 14 14 11 8 9 9 10 13 16 11 12 20 21 13 5 8 22 24 26 29 34 40 39 38
20 21 22 22 22 23 22 22 22 23 24 25 26 26 26 26 26 26 24 22 21 21 20 19 18 18 16 14 12 11 17 22 13 9 14 15 13 12 9 11 23 27 28 30 32 36 36 32 25 19 14 8 9 13 9 9 14 16 13 10 10 13 17 17 16 16 13 13 11 10 12 16 21 12 12 22 21 17 8 6 22 26 26 30 35 40 40 39
21 21 22 22 23 23 23 23 23 23 24 25 26 26 27 27 27 26 25 23 21 20 20 18 17 17 16 14 10 9 19 22 16 17 18 16 14 12 10 12 26 31 29 30 31 36 34 30 27 19 12 11 8 11 14 9 8 13 16 14 13 15 17 15 16 17 14 15 12 12 15 18 19 10 11 20 18 18 12 9 21 26 28 30 33 39 41 41
22 22 22 23 24 24 24 24 24 24 24 25 26 26 27 26 26 26 25 23 21 19 19 18 18 17 16 15 9 7 15 14 9 11 11 11 11 10 9 13 26 33 31 30 31 34 32 30 31 18 8 11 8 8 13 11 6 8 13 15 15 16 18 16 17 18 15 15 15 15 16 15 15 11 10 13 18 21 15 14 21 26 29 29 29 34 39 42
23 23 24 24 24 25 25 26 26 25 25 25 26 27 26 25 24 24 24 23 21 19 18 18 18 18 17 15 13 11 13 11 8 8 8 8 10 10 9 14 25 33 31 29 29 29 27 29 32 19 5 9 10 9 12 13 10 11 12 13 15 14 16 15 15 17 13 10 17 19 13 8 12 12 12 9 18 23 18 19 23 26 29 28 28 30 34 39
24 24 25 25 26 26 26 27 27 26 26 26 27 27 26 24 23 23 23 21 20 18 17 17 18 19 17 18 24 21 13 10 8 8 9 7 9 9 10 15 22 29 29 28 27 24 22 25 31 23 7 8 10 6 9 13 13 13 12 11 12 10 12 13 13 14 12 8 12 16 8 6 12 13 11 12 18 21 20 21 23 25 27 27 27 27 32 36
26 26 26 27 27 27 27 27 27 27 27 27 27 26 25 23 21 21 20 19 18 15 15 16 17 19 16 17 23 19 15 16 9 4 7 10 13 10 12 18 23 26 26 26 25 23 22 23 28 25 11 8 7 3 3 6 9 10 8 7 7 7 8 6 6 7 10 8 10 14 5 6 14 15 13 16 21 22 21 22 23 23 24 25 26 26 30 33
28 28 29 29 29 29 29 28 28 27 26 27 26 25 24 21 19 19 18 17 15 12 13 14 16 18 18 19 17 11 13 20 19 14 10 12 15 12 12 19 24 27 25 23 23 25 25 23 26 22 12 8 4 2 3 1 3 4 4 5 4 5 3 3 2 6 8 7 14 16 7 5 10 14 16 20 25 26 22 23 23 23 23 24 26 26 28 32
30 31 31 31 31 31 30 29 29 27 27 27 25 23 21 18 17 16 14 13 11 9 10 11 14 15 13 19 19 13 13 19 23 22 18 15 13 10 12 18 25 27 25 20 19 24 26 23 23 16 9 10 5 3 4 3 3 2 4 5 4 4 4 1 1 7 7 3 15 15 6 3 5 12 20 23 27 28 23 23 24 24 25 24 26 26 27 30
31 32 33 33 33 32 31 31 30 27 26 25 23 21 17 15 15 14 12 9 8 6 5 7 14 15 7 11 14 13 14 19 22 21 23 23 19 15 13 16 23 27 23 16 12 17 23 21 17 13 8 8 7 5 4 4 5 3 4 5 3 5 5 2 2 3 4 3 11 14 6 4 0 8 19 23 26 27 23 23 24 25 26 25 26 27 26 27
31 32 33 33 34 33 32 31 30 27 23 22 21 18 14 14 13 13 11 8 7 5 3 4 9 11 8 8 10 11 13 16 17 18 22 25 24 20 16 17 22 27 23 15 8 12 20 17 9 8 7 5 5 6 6 7 8 5 4 5 4 5 5 4 2 2 1 2 7 12 10 8 2 5 16 22 25 25 22 23 26 26 26 26 26 26 27 27
31 32 33 33 33 33 32 32 31 26 21 20 20 17 14 14 12 13 13 10 7 3 3 4 9 4 9 13 10 5 5 10 13 14 17 23 25 21 17 18 22 25 20 13 9 11 15 11 6 5 5 7 7 8 9 6 6 6 6 5 4 5 7 7 3 2 4 4 4 9 11 12 6 5 12 19 23 24 23 23 25 26 26 26 26 27 28 29
31 32 33 33 32 33 32 32 31 24 19 18 19 17 13 12 11 10 9 9 7 5 3 7 15 5 3 8 13 9 5 7 9 11 15 21 25 22 17 17 22 24 17 10 9 11 11 6 6 8 7 11 11 12 11 2 3 8 8 7 6 6 9 8 3 2 5 8 7 6 8 10 8 5 10 16 21 21 19 18 21 23 25 25 26 27 28 30
30 31 32 33 32 32 30 32 29 20 19 20 19 14 10 11 8 5 11 19 18 16 15 14 21 19 9 4 7 9 8 8 8 10 13 18 24 24 19 17 20 19 12 9 8 10 12 7 8 11 9 11 12 12 11 3 2 6 7 8 8 8 9 6 2 1 3 7 7 5 7 10 9 6 11 17 19 17 16 17 19 22 24 26 27 29 30 31
31 30 32 33 32 32 29 31 26 16 19 22 17 11 10 11 6 6 19 26 22 20 24 27 28 31 29 20 12 8 6 7 10 12 13 16 24 22 18 19 15 10 9 11 10 8 11 11 12 11 6 7 10 10 11 9 7 7 7 7 7 9 9 5 3 4 2 5 9 8 10 13 10 7 10 16 17 17 21 21 22 24 25 26 28 30 30 28
31 30 32 33 33 32 29 30 23 14 19 18 11 10 12 12 10 10 14 17 26 28 25 26 28 34 38 34 30 24 14 9 12 16 14 19 26 20 16 17 12 8 10 11 8 7 9 12 12 10 6 7 9 10 13 14 13 9 7 7 8 8 7 5 4 5 4 4 8 9 10 11 9 6 8 15 18 20 27 28 27 29 27 27 29 31 29 27
31 31 33 33 34 32 29 28 19 15 20 13 5 10 14 15 15 12 9 10 25 31 26 26 28 33 37 35 34 31 21 14 15 19 20 22 25 21 17 15 12 10 11 13 11 9 9 9 10 12 9 11 11 11 14 13 12 11 9 9 10 8 5 6 2 1 2 4 7 9 9 9 6 4 8 15 19 19 23 26 24 24 26 28 29 28 28 28
30 31 32 33 34 32 29 25 16 17 20 8 2 8 15 18 16 13 9 8 13 19 22 23 23 27 32 28 25 27 27 21 17 21 26 26 23 20 17 15 13 11 11 17 17 13 8 3 10 15 13 15 13 11 14 11 9 12 13 12 11 9 7 6 1 3 4 5 5 7 9 9 6 6 6 10 15 15 17 20 19 19 21 22 22 22 25 28
31 31 31 33 33 32 30 21 16 22 16 3 4 11 16 18 15 12 7 6 8 9 11 10 12 17 20 17 17 21 21 20 25 28 27 30 28 17 12 13 12 11 15 17 14 14 10 4 11 17 15 17 16 12 15 13 9 11 14 16 12 7 7 5 2 4 6 6 4 3 8 7 3 5 4 5 10 13 14 16 19 20 20 21 21 22 25 27
32 31 32 32 32 33 29 18 18 23 12 2 9 16 17 15 13 9 3 3 5 5 2 3 6 5 6 11 17 16 9 11 28 33 25 29 33 20 10 10 8 11 14 13 7 7 8 8 11 15 16 18 17 13 15 14 10 8 9 12 10 7 9 9 6 4 5 6 2 3 8 7 3 5 5 6 9 12 13 14 18 22 22 23 25 25 25 26
33 33 32 31 30 30 27 19 18 21 15 13 18 18 17 13 9 5 1 3 4 3 3 3 3 3 3 9 20 17 3 2 11 26 31 30 32 24 13 10 8 8 8 7 5 5 9 13 12 13 15 15 15 13 13 16 12 6 6 11 11 11 13 11 8 7 7 7 5 6 8 9 9 7 5 8 9 10 13 15 17 22 24 26 27 27 27 28
33 34 33 31 28 25 23 20 18 19 20 23 23 18 17 12 6 2 1 3 2 4 4 3 3 4 3 10 25 15 3 2 3 15 32 34 29 21 13 13 13 11 13 11 10 7 12 17 17 16 14 12 12 11 13 18 14 4 6 9 11 12 12 10 8 9 6 6 9 9 8 7 10 5 5 7 9 10 14 16 16 20 25 27 29 29 28 29
33 33 32 31 27 21 18 17 18 20 21 24 22 19 17 11 3 1 2 4 1 4 3 4 4 2 4 10 20 13 6 2 2 6 23 30 29 19 9 14 14 11 16 17 12 5 8 15 19 16 12 10 11 10 13 18 13 3 7 7 8 8 7 7 8 6 3 6 11 9 8 7 11 7 5 5 8 11 12 13 15 21 26 28 30 31 30 29
34 33 31 27 24 20 16 15 16 20 22 23 21 18 15 6 2 3 5 4 1 3 3 3 3 3 2 7 9 12 8 5 5 7 18 19 25 18 5 10 12 8 11 14 13 4 3 8 14 12 11 11 11 9 12 17 12 6 7 7 6 5 4 3 3 2 4 8 11 11 10 7 9 8 8 7 7 10 9 9 12 17 23 27 29 31 32 30
35 34 29 20 17 18 19 19 18 19 22 21 18 15 8 1 2 4 5 2 3 3 3 3 2 3 1 2 4 6 8 7 1 9 13 11 15 13 6 9 9 6 8 10 11 8 2 6 8 7 13 14 11 9 10 13 13 8 7 8 5 3 2 3 3 3 9 9 5 9 12 11 11 8 7 10 11 11 11 11 12 15 21 27 29 32 33 33
35 35 26 14 12 16 18 21 21 21 21 19 17 12 3 3 4 6 4 3 2 2 4 2 3 5 5 4 3 3 4 5 6 10 10 10 12 12 11 11 10 9 10 10 9 9 9 7 4 5 13 17 13 9 8 9 12 11 9 9 7 5 4 6 7 5 9 6 2 4 9 11 12 7 4 9 11 12 13 13 14 15 20 26 29 32 34 34
34 34 25 11 10 17 16 18 22 21 20 19 15 8 2 5 5 6 5 4 2 4 5 4 8 10 7 3 1 3 3 2 7 11 10 10 10 11 12 11 12 9 5 9 10 7 7 7 7 7 8 16 16 10 8 8 11 13 10 10 9 7 6 9 8 5 6 4 2 3 5 7 9 5 9 14 14 15 17 19 20 20 22 27 31 34 34 34
33 32 24 9 8 17 17 16 20 20 20 19 12 3 5 7 2 1 3 3 5 7 7 8 12 10 6 2 3 3 1 2 3 7 10 10 9 11 11 9 13 8 2 7 9 8 10 7 11 14 8 14 18 13 11 10 10 13 10 9 10 7 7 6 5 5 4 2 3 5 5 6 4 1 7 13 15 18 20 22 25 26 26 28 29 30 32 33
33 29 19 6 8 16 17 15 17 18 18 15 6 4 7 6 2 3 3 6 7 7 11 14 10 6 2 1 2 5 2 2 3 2 9 10 8 9 8 7 11 8 4 8 5 7 14 7 7 17 13 15 18 13 12 13 10 10 10 10 11 8 6 2 1 3 1 1 3 5 4 3 1 2 4 7 10 13 15 16 18 21 23 20 19 22 28 32
33 29 14 5 13 20 20 17 15 16 14 8 3 5 5 3 3 3 5 8 8 9 13 12 4 2 2 0 1 5 4 2 4 0 7 6 3 1 1 1 3 1 1 7 5 4 10 6 6 11 12 15 19 15 15 13 8 5 9 11 8 6 8 5 2 1 0 4 4 5 7 4 2 7 8 9 9 9 11 13 14 18 18 16 16 21 27 31
36 30 13 10 20 23 22 19 16 15 10 2 3 5 3 2 4 5 8 11 10 9 9 5 2 2 3 1 2 6 7 4 3 1 4 4 2 5 6 4 3 6 6 2 4 3 5 5 6 10 12 13 16 18 16 15 11 7 9 10 7 6 7 7 4 3 5 7 4 5 10 8 4 5 4 9 11 11 11 12 13 16 16 16 18 22 29 32
36 26 12 14 23 23 19 16 14 10 4 3 5 5 3 4 7 10 12 13 10 8 6 4 3 3 3 3 2 7 8 4 3 3 1 2 2 5 6 4 3 6 8 5 2 2 4 4 5 11 15 9 10 14 13 12 11 6 7 11 8 5 7 6 5 6 7 8 5 5 8 8 9 7 2 6 11 12 11 11 13 14 14 17 19 23 29 31
32 20 11 15 23 20 13 11 9 2 3 2 4 3 4 6 10 13 15 13 8 6 5 4 3 3 3 5 4 5 6 4 4 3 1 2 2 5 8 5 5 8 9 5 3 1 3 5 4 6 10 10 10 11 10 10 8 2 5 10 6 4 6 7 5 4 5 7 5 3 4 6 8 9 8 9 9 10 11 10 11 13 16 19 21 23 27 30
28 14 9 18 22 17 10 9 9 4 1 2 3 4 6 7 10 14 16 13 7 5 5 4 5 5 4 5 4 4 4 4 5 3 2 4 2 5 10 8 6 11 10 4 3 1 1 6 4 2 5 9 9 9 11 13 10 6 7 10 7 4 3 4 5 4 4 6 5 5 6 3 2 6 12 15 12 10 11 10 10 13 17 20 22 27 30 32
22 8 8 20 21 14 9 8 8 4 2 3 4 6 8 8 10 13 14 13 7 5 6 7 7 5 5 5 3 3 3 3 4 3 3 4 3 4 9 11 8 11 8 1 1 3 0 4 5 4 5 7 7 10 16 18 16 14 10 10 11 8 5 6 6 6 5 6 4 4 7 4 3 3 8 12 12 11 11 11 10 13 18 20 25 32 34 32
14 6 10 19 18 15 10 6 6 5 2 4 6 7 9 8 9 11 12 12 9 6 6 6 6 4 3 3 2 3 3 3 3 2 3 5 6 4 8 14 13 10 5 2 3 4 2 1 3 5 4 3 5 9 14 13 12 15 12 11 13 11 9 8 7 7 7 5 2 2 8 5 3 5 7 8 9 10 10 10 10 13 17 21 27 33 32 30
11 11 13 17 17 16 9 3 6 5 2 7 10 9 8 7 8 10 10 10 9 7 5 4 5 4 2 2 3 3 3 3 3 4 4 5 6 5 10 16 15 10 6 3 3 4 3 1 4 4 1 1 2 5 7 4 5 10 11 11 12 12 13 12 6 4 7 7 5 5 8 4 2 3 5 4 5 7 8 8 10 12 15 18 24 29 30 29
12 13 13 16 17 16 10 4 6 5 5 10 11 9 8 6 7 9 9 9 9 7 5 5 6 6 4 4 3 4 4 3 3 5 4 3 4 6 13 16 14 9 6 6 6 4 2 1 3 5 4 5 6 7 7 5 4 7 8 10 13 14 17 15 5 2 6 11 12 9 9 4 3 0 2 3 4 6 8 9 9 11 14 18 21 24 26 26
12 9 11 17 16 15 11 6 6 5 7 11 11 9 8 7 9 10 8 9 10 9 7 6 8 7 6 5 2 5 6 3 3 4 4 4 4 6 13 15 11 9 8 10 10 4 1 1 1 5 8 10 8 7 6 3 3 3 4 8 13 17 20 15 5 4 8 10 12 13 8 2 3 1 2 4 4 6 9 10 9 12 17 20 21 22 21 20
9 4 8 14 12 10 9 8 9 7 7 10 9 7 8 8 9 10 8 7 10 13 9 7 10 9 8 8 3 4 6 5 3 4 4 5 4 5 12 12 8 11 11 13 14 6 1 1 2 1 2 2 1 1 2 3 1 2 2 3 7 13 18 15 9 7 6 5 9 13 9 5 4 4 3 4 5 6 9 8 7 12 19 21 20 20 18 17
5 3 6 9 7 7 8 8 11 10 8 9 6 5 9 10 8 9 8 5 8 13 8 6 12 10 8 10 6 3 5 4 4 5 5 5 4 6 10 7 6 12 12 11 13 7 0 2 3 3 4 4 5 6 5 4 4 5 6 6 5 7 13 17 14 8 7 6 11 10 7 10 10 6 5 6 6 7 7 6 8 14 18 17 15 14 14 14
5 5 8 6 4 6 7 9 12 12 11 10 4 4 9 11 8 8 8 6 7 9 5 5 11 12 11 11 7 3 5 3 3 5 5 6 5 6 8 4 4 12 13 9 10 6 1 1 3 4 6 5 7 8 5 3 5 6 7 9 9 8 9 13 14 10 10 10 12 7 8 11 12 9 9 7 5 6 8 8 13 18 16 12 9 9 11 11
6 6 8 6 5 8 10 11 13 11 10 9 4 4 9 11 10 9 6 6 5 7 6 6 10 12 11 11 7 5 5 3 3 4 6 7 7 5 5 2 3 10 13 8 6 5 2 1 4 6 7 6 7 7 4 2 4 7 9 10 12 12 11 10 11 13 13 14 14 10 9 11 11 10 12 12 11 12 13 13 16 18 15 10 8 9 10 12
7 6 8 8 8 11 11 10 10 9 8 7 4 6 9 11 12 11 8 7 5 4 8 8 10 11 10 9 8 5 5 6 5 4 5 7 5 3 3 2 3 8 10 6 5 5 4 1 4 6 6 5 5 5 4 5 7 9 10 11 11 12 12 12 11 12 12 12 14 14 11 8 6 5 8 9 8 10 12 12 15 18 16 12 12 15 18 21
10 9 9 8 7 8 9 9 8 7 5 5 5 8 9 10 12 13 10 6 3 2 8 10 11 9 8 8 7 5 7 9 8 8 8 7 6 5 4 3 4 7 6 4 4 5 4 2 2 4 4 4 4 6 9 12 11 11 12 12 13 13 12 11 9 9 10 9 11 14 11 6 3 4 8 8 5 7 8 9 14 20 21 17 17 21 24 27
12 11 10 7 4 5 7 7 7 7 5 5 8 10 10 10 12 13 9 2 0 3 8 11 10 8 6 6 7 9 13 15 14 13 13 12 11 11 11 10 9 6 3 4 4 3 3 3 2 2 3 4 4 7 10 12 9 9 9 8 10 12 12 12 12 11 11 9 8 9 7 4 4 7 10 10 9 9 10 13 19 24 24 23 23 25 27 30
Wind_Direction
341 340 338 336 334 331 329 327 324 321 318 314 311 307 303 301 298 296 294 292 292 291 292 292 292 292 291 292 288 288 289 284 284 277 269 270 280 269 256 249 243 232 221 215 211 176 165 171 178 177 171 172 181 177 180 184 177 186 216 235 235 247 247 241 254 288 320 319 167 170 175 166 153 163 158 148 142 139 156 160 157 175 204 191 184 170 161 159
340 339 337 335 333 330 329 327 324 323 320 318 315 311 308 303 299 295 292 290 290 289 290 290 290 291 294 293 291 294 292 291 290 274 267 272 274 267 255 244 237 233 224 215 214 194 173 172 175 173 166 167 179 176 181 185 181 190 208 230 232 231 233 253 273 286 300 303 174 181 184 176 167 161 164 168 151 151 162 168 161 153 157 174 170 164 162 161
340 338 336 334 332 331 329 327 325 323 320 319 315 314 311 306 302 297 292 289 286 286 287 289 289 291 294 293 293 297 297 302 294 278 273 268 256 251 245 239 232 229 226 219 216 208 191 177 173 169 162 167 176 174 184 187 190 203 213 234 239 239 256 267 277 293 304 288 202 183 183 186 172 159 167 176 161 171 182 177 173 163 154 158 159 161 163 164
340 338 336 334 332 331 330 328 326 323 320 318 315 314 310 307 305 300 296 290 286 284 283 286 287 289 294 294 295 297 306 310 291 278 263 207 195 205 237 229 224 223 220 222 215 207 199 181 172 166 164 172 176 177 190 191 187 197 212 233 232 235 250 257 288 315 324 282 198 175 178 189 171 167 174 163 161 197 207 195 188 181 168 160 161 164 165 168
339 338 336 334 333 332 330 329 327 325 322 318 316 313 310 307 303 300 297 293 289 285 281 282 283 287 292 293 293 294 311 319 275 228 169 155 193 268 255 224 216 214 205 206 198 192 190 177 166 165 171 175 174 184 203 200 197 208 223 234 237 256 271 280 301 321 347 115 176 175 183 180 165 182 184 172 185 211 216 207 196 188 183 175 169 168 168 170
339 338 336 334 333 332 331 330 328 326 323 320 317 314 311 307 302 299 296 294 292 287 282 279 279 282 286 290 292 284 267 255 221 177 175 213 288 277 275 225 205 200 191 188 185 181 177 167 161 169 180 180 183 191 202 199 204 230 236 235 240 252 264 276 286 295 318 171 182 189 189 168 168 200 195 191 206 209 239 215 196 193 191 184 174 172 172 173
341 340 338 336 334 333 332 331 329 327 324 320 318 316 313 308 304 299 296 294 291 288 284 278 276 277 281 285 283 273 248 250 245 215 238 280 281 270 281 223 197 187 179 180 180 176 170 167 168 172 176 186 195 197 193 194 206 230 248 243 242 248 253 264 270 273 281 249 221 200 185 178 188 203 192 205 216 212 277 227 198 195 186 182 178 177 178 178
346 343 340 338 336 334 333 331 329 327 323 320 318 316 313 309 305 301 298 295 291 288 283 277 274 272 276 277 275 271 251 250 256 255 260 274 275 266 263 206 187 179 176 181 180 178 173 171 173 170 177 189 187 197 196 192 210 227 246 256 254 255 256 262 265 263 260 256 248 205 198 203 200 189 190 212 215 209 240 217 199 196 183 183 182 180 181 181
349 345 342 339 337 335 333 332 330 326 322 318 318 317 314 309 305 303 301 297 293 287 282 276 271 267 267 266 265 267 256 255 269 271 262 265 267 253 244 201 181 174 176 181 181 180 174 172 177 172 182 185 168 191 200 205 214 219 235 249 253 257 263 266 266 264 257 253 242 210 219 219 199 182 214 219 203 202 219 200 194 192 184 184 183 183 185 185
349 345 342 339 337 336 334 333 330 326 321 317 318 318 315 309 304 303 302 299 294 286 280 273 267 262 258 254 235 246 265 262 264 264 260 258 245 226 224 202 181 173 173 177 180 183 180 182 180 167 165 183 185 195 198 209 221 226 238 249 255 261 268 268 266 265 261 250 231 220 231 221 188 191 230 212 193 201 198 183 188 186 184 184 184 186 188 189
348 345 342 339 338 336 335 334 331 327 322 319 320 319 316 311 307 304 301 299 294 287 277 268 263 256 252 243 218 231 263 259 248 258 272 257 223 211 204 193 184 178 175 177 183 188 192 192 179 165 157 180 192 210 217 223 236 258 265 270 268 269 271 261 259 258 254 248 226 220 234 204 172 208 228 177 183 199 185 175 182 182 184 184 185 188 190 191
347 344 341 339 337 336 335 334 332 329 325 323 322 320 318 314 310 305 302 300 295 287 274 263 255 250 247 240 234 239 250 258 266 260 253 221 184 193 192 187 185 183 181 181 186 192 198 195 181 176 173 164 174 198 227 225 233 252 261 275 278 279 280 258 248 245 228 237 219 207 228 196 185 218 215 172 177 185 179 175 177 180 183 183 185 188 192 193
346 343 341 339 338 337 337 336 333 330 328 326 324 322 319 317 314 308 305 302 296 287 273 259 249 243 234 237 246 247 239 244 252 227 204 165 153 168 187 187 181 181 186 188 190 193 197 197 189 187 182 165 169 168 192 204 223 240 241 260 277 283 284 251 239 224 209 231 194 178 228 224 203 212 189 177 179 171 173 176 176 181 180 183 186 188 193 195
347 345 343 341 340 340 340 339 335 331 330 329 326 324 322 320 316 311 310 307 302 291 272 255 242 233 226 236 252 250 229 231 232 225 203 161 149 156 181 189 184 180 185 194 195 193 196 198 192 190 192 188 173 190 220 208 219 242 252 243 256 266 239 128 138 176 194 222 178 177 254 254 197 201 182 179 182 173 175 178 178 182 180 184 188 190 194 196
347 346 344 342 342 341 342 342 338 334 332 330 328 327 324 320 316 314 314 313 312 298 270 249 229 213 226 251 256 249 230 223 226 223 212 201 188 181 185 190 192 187 185 197 201 195 193 190 188 189 200 211 215 247 249 268 242 243 260 232 205 231 228 112 130 200 219 215 177 187 257 270 183 191 182 179 182 178 178 179 179 182 182 185 188 192 196 198
346 345 343 342 341 341 344 344 341 338 334 331 331 329 324 317 311 306 304 307 319 311 268 238 216 202 224 269 257 248 234 223 226 223 215 217 218 219 209 189 192 194 191 197 201 197 192 183 186 199 208 210 213 228 240 253 241 211 231 241 213 225 257 306 84 210 238 137 179 203 247 280 215 181 181 178 182 181 178 179 180 182 184 186 189 193 196 198
345 344 342 341 340 340 343 345 343 341 336 333 334 332 323 313 302 296 293 293 314 321 279 228 197 205 237 254 248 247 238 224 223 222 215 214 218 224 215 187 187 194 195 195 185 179 185 183 184 202 214 212 198 199 215 230 226 199 208 245 247 240 268 263 143 75 301 150 191 214 240 268 310 152 180 183 183 184 183 181 181 182 185 188 190 193 196 198
345 343 341 340 339 338 341 345 344 342 337 335 340 339 324 310 301 293 282 279 296 297 268 196 161 209 249 228 225 216 210 209 210 214 208 206 212 216 208 189 183 184 181 180 176 164 173 182 189 197 205 207 198 195 207 218 205 197 203 225 245 237 249 252 231 29 337 304 241 219 236 256 259 160 181 192 189 190 191 186 182 183 184 188 191 195 197 200
345 343 341 340 338 337 340 344 345 343 336 338 349 342 324 317 308 288 272 278 276 240 256 183 176 210 292 213 215 204 183 183 192 204 197 196 201 201 202 194 178 171 163 165 179 174 170 165 190 208 210 203 202 204 208 195 158 198 209 227 244 241 245 255 256 334 324 304 276 241 245 261 262 197 185 198 197 197 198 187 184 185 185 188 192 197 199 201
345 343 340 339 338 337 340 344 345 345 341 346 353 347 345 346 327 292 304 298 273 247 256 237 216 235 262 243 222 218 216 210 210 204 191 193 190 184 183 175 165 166 166 166 166 170 179 193 210 213 212 199 196 202 207 207 172 188 196 222 236 244 252 260 267 291 328 304 281 268 277 280 277 235 199 196 195 200 199 189 190 190 189 191 193 198 201 203
346 343 341 340 338 336 340 345 345 344 348 349 349 4 37 21 1 324 319 308 289 265 259 255 245 247 251 250 240 236 255 250 232 206 191 190 183 175 172 165 160 177 181 155 139 150 183 215 222 208 196 181 186 195 201 211 213 197 193 214 229 235 249 267 286 275 282 289 280 289 292 285 281 257 208 190 191 201 200 194 196 196 195 195 196 199 202 202
347 344 342 340 338 337 340 345 344 343 346 342 342 30 48 21 356 323 311 301 296 291 279 266 254 250 250 248 245 249 266 273 238 212 192 182 182 178 169 172 176 176 166 150 140 160 199 227 217 183 160 166 183 191 197 211 219 221 217 223 236 234 253 274 277 271 245 252 279 295 293 285 288 269 209 192 195 204 204 201 199 196 196 197 198 200 198 197
348 345 343 342 340 338 340 345 343 340 343 336 342 27 17 354 343 324 293 276 291 291 283 268 254 249 248 244 245 243 240 242 237 222 200 180 185 187 170 175 188 164 161 181 186 183 205 229 195 165 167 183 189 190 195 208 216 224 222 221 235 225 237 252 212 74 219 227 279 300 294 283 279 249 212 203 205 209 209 208 207 201 200 202 202 199 195 195
349 346 343 343 341 338 343 345 339 344 347 339 357 7 352 339 334 329 303 260 281 287 279 267 253 251 246 241 240 229 222 223 226 223 208 186 178 184 181 177 179 174 180 194 198 202 211 195 165 168 178 193 197 189 193 206 214 221 220 222 232 218 217 239 280 341 280 236 254 288 294 281 249 231 224 204 207 215 213 210 212 210 209 210 207 203 200 200
349 346 344 344 342 339 344 346 339 350 356 358 348 337 333 333 328 329 317 264 268 276 280 260 241 249 240 229 222 213 213 221 225 222 208 194 183 171 176 179 177 193 195 189 196 217 219 142 157 177 182 193 202 199 198 203 214 221 220 224 228 212 212 223 240 297 282 258 229 243 276 274 218 227 225 184 201 215 213 211 214 215 213 213 211 209 206 204
348 347 345 345 345 340 345 354 343 348 359 329 327 322 319 328 326 321 310 277 274 250 237 195 213 225 197 195 190 181 188 231 234 226 207 200 195 175 158 173 189 206 188 176 194 233 209 150 159 186 189 191 201 211 201 195 217 232 210 208 209 201 213 221 224 245 266 273 244 192 260 278 267 241 208 180 204 213 212 214 216 216 214 213 214 214 209 205
347 348 347 346 347 343 346 353 340 342 350 333 326 323 322 325 323 321 263 268 267 189 130 147 181 138 138 187 171 160 162 224 221 216 206 202 195 185 183 174 185 201 153 143 212 215 171 164 171 188 192 195 204 211 191 185 216 234 154 167 186 203 218 221 230 242 257 277 268 219 237 269 273 255 180 176 205 214 214 216 216 215 214 214 215 216 213 207
345 347 349 347 347 346 342 342 337 339 341 333 329 328 326 322 311 291 246 291 269 125 104 125 118 102 113 173 172 173 317 60 145 205 202 198 189 186 200 189 183 180 153 166 208 177 159 178 184 182 190 203 208 200 172 182 214 219 135 166 187 202 218 220 231 246 250 269 262 227 199 241 265 250 136 170 208 222 221 218 216 215 214 213 215 216 214 210
344 346 351 348 347 346 338 337 338 335 331 329 329 326 324 318 293 208 237 278 235 92 65 128 113 42 90 154 188 218 310 356 357 188 186 192 189 187 208 196 181 167 169 191 210 165 156 191 188 180 193 204 203 190 167 185 210 168 129 157 167 179 194 203 225 239 223 241 254 233 182 222 266 248 173 175 212 224 225 219 216 216 213 212 213 214 214 210
344 347 352 350 350 349 339 336 334 329 329 330 327 323 321 307 207 193 211 244 337 43 20 100 85 350 110 143 209 244 259 284 346 147 169 183 189 190 192 174 170 158 179 208 221 195 96 187 186 183 199 200 191 184 176 189 192 141 141 155 144 152 148 169 208 208 234 247 247 229 200 216 268 252 196 190 208 213 219 221 218 216 214 213 212 212 212 209
343 347 353 355 356 353 341 335 331 329 331 331 326 319 313 241 199 220 207 251 352 12 15 37 42 6 26 201 239 231 228 256 319 153 169 174 182 187 159 153 168 171 185 213 222 218 190 177 176 185 200 192 179 182 186 187 181 168 185 188 176 177 169 211 201 191 239 248 228 214 207 211 244 247 188 195 203 198 211 223 216 211 212 211 212 212 211 209
343 346 352 354 357 357 343 331 326 327 334 336 329 319 280 198 224 223 241 323 329 9 15 357 334 345 333 287 247 221 225 219 175 169 178 180 182 186 183 178 172 175 196 203 197 206 212 197 169 184 198 190 182 187 187 179 185 196 200 194 201 200 190 221 214 209 239 239 124 192 199 210 240 251 195 205 206 202 214 223 218 212 209 207 208 210 210 209
343 346 348 342 352 357 346 330 323 321 334 341 332 323 226 224 230 216 254 304 18 10 353 314 317 317 292 270 288 262 252 187 175 183 185 187 189 191 200 196 180 184 204 188 182 189 203 212 202 195 195 190 189 189 182 176 188 200 198 190 198 194 197 217 214 223 248 225 141 140 176 227 255 248 212 213 210 207 212 217 221 218 212 210 210 209 208 207
343 346 346 333 342 349 341 332 325 320 332 341 332 301 206 225 257 287 262 316 357 344 331 321 318 305 263 224 15 348 257 135 157 182 181 186 193 194 199 196 192 199 113 165 192 194 198 217 202 196 183 175 190 201 183 165 182 199 195 192 203 204 206 214 206 220 245 209 152 147 176 224 239 200 211 215 213 210 211 215 220 223 223 220 214 207 205 207
343 347 350 336 327 336 334 329 323 319 329 340 327 234 215 227 295 11 3 355 349 337 328 320 307 286 253 162 24 10 29 86 48 176 189 188 193 195 196 193 194 199 171 180 193 192 209 229 177 190 183 163 186 201 167 156 181 195 181 196 216 205 189 215 249 214 233 274 187 182 216 240 240 297 266 236 229 220 220 221 220 226 227 219 207 202 204 208
344 351 360 350 334 335 334 329 320 314 321 337 298 238 240 268 338 10 7 355 343 333 324 315 297 263 299 292 22 11 8 359 15 238 191 176 161 168 350 15 182 215 218 197 181 166 211 221 139 170 180 178 189 181 163 171 179 166 184 203 205 174 184 222 250 120 193 257 220 198 242 265 271 267 241 217 228 227 228 230 225 230 228 212 202 202 205 208
347 352 359 349 342 338 334 329 316 306 306 296 241 256 271 309 354 7 359 349 333 324 320 315 354 343 327 347 350 356 347 326 356 350 179 147 64 9 350 342 13 15 2 278 211 159 202 207 138 156 183 195 188 171 174 183 159 144 196 189 136 138 198 223 235 208 219 246 234 205 237 245 232 253 216 193 209 216 220 224 225 231 229 222 215 210 213 213
345 350 0 349 340 338 337 332 320 302 280 221 242 267 292 298 330 351 351 343 327 319 313 290 320 0 357 348 337 347 341 326 358 5 127 118 54 19 355 317 340 5 350 317 255 166 205 216 165 179 190 178 159 170 183 181 167 166 184 163 142 175 192 182 215 226 218 237 249 213 231 238 223 226 207 190 203 211 217 218 221 227 226 226 224 218 219 217
346 352 3 348 339 341 351 358 0 344 207 250 261 269 318 312 321 337 342 339 322 309 308 285 305 348 339 336 338 347 346 347 352 347 62 36 49 48 20 342 303 334 334 298 250 154 199 211 197 197 185 153 155 186 191 181 188 185 149 162 175 210 187 173 194 211 205 228 247 229 230 238 223 214 212 216 214 216 221 217 219 225 224 224 224 222 220 217
351 350 350 350 345 346 3 26 30 42 190 333 314 309 338 329 319 327 335 337 321 291 298 299 310 316 316 328 334 342 345 344 344 347 42 24 80 78 26 1 318 328 330 276 239 352 194 207 209 150 146 162 176 195 193 186 188 185 177 185 187 181 178 183 197 207 212 222 234 247 250 241 181 194 206 213 215 219 222 220 223 227 228 228 228 228 226 221
355 339 334 354 357 357 16 40 31 15 8 3 343 329 333 324 320 327 332 337 329 287 286 295 301 303 304 311 324 353 339 317 336 11 55 27 49 68 15 355 328 322 326 277 100 10 346 203 203 174 171 188 182 186 199 198 192 192 194 192 188 185 178 185 203 208 215 227 218 244 263 250 136 168 204 209 214 220 221 219 225 231 232 232 233 234 233 229
355 330 341 359 5 10 24 49 25 10 22 357 340 320 316 320 328 332 335 342 344 324 304 297 299 307 310 314 335 359 352 347 351 18 75 55 47 38 357 345 334 331 344 59 65 13 354 179 200 200 194 197 179 192 212 214 204 203 203 194 193 194 186 195 211 192 193 220 212 251 273 269 140 165 195 204 213 223 225 221 227 235 235 234 236 238 238 236
341 324 348 9 16 19 28 51 15 8 356 350 341 316 311 330 343 341 340 343 345 340 328 315 319 331 347 350 343 342 350 10 36 49 71 78 64 22 349 347 346 351 13 35 26 3 344 197 198 204 200 296 218 218 234 250 226 219 214 202 198 198 198 208 217 175 185 202 186 220 253 247 120 172 205 213 229 239 242 234 232 241 242 242 243 244 244 244
326 312 340 11 29 37 39 31 7 354 339 345 340 330 340 356 355 349 339 338 348 346 328 328 337 337 339 340 3 27 9 12 62 57 52 64 54 8 350 351 356 7 25 16 356 335 312 213 190 192 192 207 216 219 218 203 201 223 223 211 206 203 205 211 203 134 211 208 195 217 239 198 109 6 234 242 259 264 262 249 241 250 253 252 253 253 250 248
332 313 330 353 20 45 48 34 8 349 346 346 334 336 356 356 353 353 337 336 353 348 329 339 344 345 352 350 36 55 23 22 60 57 59 42 28 4 347 346 358 12 13 3 354 333 266 7 217 208 205 204 206 211 213 196 194 224 230 217 211 207 209 212 194 188 217 203 196 219 235 145 99 143 217 243 254 263 265 258 247 250 255 257 259 261 260 258
341 330 334 340 359 31 37 27 11 357 350 348 334 335 353 351 349 351 342 347 358 345 339 6 3 358 6 0 15 55 24 21 45 60 66 34 16 351 338 337 1 13 6 0 356 344 199 54 5 308 237 217 224 257 309 351 298 247 280 256 225 215 214 212 209 210 196 173 209 225 237 257 231 181 179 223 229 243 260 264 258 257 260 260 260 263 266 266
342 338 348 343 344 359 5 7 4 356 341 340 330 317 339 348 352 352 348 357 1 344 335 23 21 13 9 359 352 14 10 17 46 46 44 29 16 341 335 341 19 12 7 3 357 351 163 57 41 33 20 4 332 312 311 317 278 265 283 281 268 244 224 219 221 204 148 182 232 221 211 244 241 200 199 225 221 234 248 254 265 270 269 264 263 267 269 271
346 329 337 344 339 338 341 341 342 336 328 332 331 312 334 347 356 358 350 336 349 354 344 15 17 7 354 351 342 339 6 36 52 29 24 18 6 347 351 26 44 13 10 6 4 5 305 39 48 11 348 337 315 307 304 287 259 259 268 268 270 271 249 236 233 212 177 209 241 211 178 225 239 222 223 230 225 240 253 263 272 276 275 266 253 250 253 265
335 320 323 336 329 315 311 312 317 322 325 327 330 336 339 343 347 354 351 319 329 14 22 11 3 352 341 343 348 354 9 28 30 27 21 3 354 348 354 12 39 16 9 3 10 11 318 6 37 349 328 322 314 311 317 313 282 274 269 264 265 266 261 254 248 239 227 234 248 238 203 216 232 229 229 233 238 251 265 276 274 272 269 258 246 247 261 281
333 319 314 319 318 312 311 312 315 321 327 326 336 352 344 337 339 345 340 305 287 355 17 5 352 343 331 333 343 357 17 15 358 352 352 345 344 358 4 6 10 4 2 360 5 360 339 6 25 347 322 310 318 323 324 321 309 291 273 261 258 257 254 249 243 244 246 245 251 256 247 229 231 249 249 244 246 255 260 262 259 261 264 264 270 278 285 289
331 321 312 308 311 318 319 324 326 321 322 332 342 346 339 331 336 339 329 301 263 339 355 345 338 335 327 326 333 342 352 346 322 303 306 300 291 303 316 317 332 344 355 358 347 343 333 320 11 350 310 293 326 338 328 324 312 284 264 256 250 245 246 247 240 234 234 236 242 249 254 255 243 260 262 255 242 238 242 245 253 260 265 268 275 280 281 282
331 324 318 306 301 315 318 322 325 320 323 337 333 331 327 322 330 336 333 323 128 337 332 326 322 324 325 321 329 334 328 318 302 292 288 274 267 276 276 275 286 293 302 321 322 317 303 293 319 326 291 292 316 330 329 324 302 267 255 254 250 249 253 252 246 238 229 228 237 241 245 250 226 227 242 248 241 233 236 244 251 257 260 260 263 268 270 273